{"data":{"norad_id":59214,"epoch":"2026-09-20T11:10:18.364512Z","epoch_age_seconds":161833,"freshness":"FRESH","line1":"1 59214U 24046P   26263.46549033  .00001427  00000+0  53355-4 0  9998","line2":"2 59214  53.1609 326.1540 0001222  83.6109 276.5033 15.34403637142922","mean_motion":15.34403637,"eccentricity":0.0001222,"inclination_deg":53.1609,"raan_deg":326.154,"arg_perigee_deg":83.6109,"mean_anomaly_deg":276.5033,"bstar":5.3355e-5,"rev_number":14292,"period_min":93.847535633807,"perigee_km":461.85648094161,"apogee_km":463.52837965438,"semimajor_km":6840.829430298,"source":"CELESTRAK","updated_at":"2026-09-21T09:00:34.071070Z"}}